DW2427 Weather Reports


Display with metric or nautical units.
time (UTC)temp
F
wind
direction
speed
MPH
gust
MPH
rain 1hr
in
rain 24hr
in
rain mn
in
humidity
%
barometer
mb
20180621234029 78 160 2.0 11.0 0.53 0.53 0.53 90 1010.4
20180621233529 78 165 3.0 12.0 0.52 0.52 0.52 88 1010.4
20180621233029 79 219 5.0 22.0 0.51 0.51 0.51 84 1010.6
20180621232530 83 256 4.0 22.0 0.30 0.30 0.30 73 1010.6
20180621232030 87 253 2.0 9.0 0.00 0.00 0.00 69 1010.0
20180621231530 88 247 3.0 12.0 0.00 0.00 0.00 65 1009.3
20180621231029 90 256 3.0 14.0 0.00 0.00 0.00 61 1009.2
20180621230529 92 258 1.0 14.0 0.00 0.00 0.00 58 1009.3
20180621230029 93 259 1.0 7.0 0.00 0.00 0.00 56 1009.1
20180621225530 94 270 1.0 7.0 0.00 0.00 0.00 54 1009.0
20180621225030 94 278 1.0 8.0 0.00 0.00 0.00 54 1008.9
20180621224529 94 282 2.0 9.0 0.00 0.00 0.00 53 1008.9
20180621224029 94 283 2.0 9.0 0.00 0.00 0.00 53 1008.9
20180621223529 94 285 3.0 12.0 0.00 0.00 0.00 54 1008.9
20180621223030 94 282 3.0 12.0 0.00 0.00 0.00 53 1009.0
20180621222529 94 277 1.0 12.0 0.00 0.00 0.00 53 1008.9
20180621222029 94 247 1.0 8.0 0.00 0.00 0.00 54 1009.0
20180621221529 94 263 2.0 8.0 0.00 0.00 0.00 54 1008.9
20180621221029 94 272 3.0 11.0 0.00 0.00 0.00 53 1008.9
20180621220529 94 274 3.0 11.0 0.00 0.00 0.00 53 1008.8
20180621220029 95 275 2.0 8.0 0.00 0.00 0.00 50 1008.8
20180621215529 96 290 1.0 5.0 0.00 0.00 0.00 51 1008.7
20180621215029 95 288 1.0 6.0 0.00 0.00 0.00 52 1008.6
20180621214529 94 270 1.0 8.0 0.00 0.00 0.00 53 1008.6
20180621214029 94 272 3.0 8.0 0.00 0.00 0.00 52 1008.6
20180621213529 94 277 4.0 8.0 0.00 0.00 0.00 52 1008.7
20180621213029 94 277 3.0 9.0 0.00 0.00 0.00 52 1008.8
20180621212529 94 272 2.0 9.0 0.00 0.00 0.00 53 1008.9
20180621212029 93 252 2.0 8.0 0.00 0.00 0.00 54 1008.8
20180621211529 94 256 2.0 8.0 0.00 0.00 0.00 55 1008.7
20180621211029 94 286 2.0 8.0 0.00 0.00 0.00 53 1008.7
20180621210529 94 282 3.0 8.0 0.00 0.00 0.00 52 1008.7
20180621210029 94 289 4.0 8.0 0.00 0.00 0.00 53 1008.7
20180621205530 95 296 3.0 10.0 0.00 0.00 0.00 53 1008.8
20180621205029 95 283 3.0 10.0 0.00 0.00 0.00 54 1008.8
20180621204529 94 272 4.0 11.0 0.00 0.00 0.00 55 1008.8
20180621204029 94 281 4.0 13.0 0.00 0.00 0.00 55 1008.8
20180621203529 95 287 4.0 13.0 0.00 0.00 0.00 54 1008.8
20180621203029 95 281 3.0 11.0 0.00 0.00 0.00 54 1008.9
20180621202529 94 262 3.0 12.0 0.00 0.00 0.00 54 1008.9
20180621202029 95 272 4.0 13.0 0.00 0.00 0.00 51 1009.0
20180621201528 96 287 2.0 13.0 0.00 0.00 0.00 51 1009.0
20180621201029 96 275 2.0 9.0 0.00 0.00 0.00 54 1008.9
20180621200529 95 267 2.0 8.0 0.00 0.00 0.00 54 1008.9
20180621200029 94 270 2.0 8.0 0.00 0.00 0.00 55 1008.9
20180621195528 94 265 4.0 12.0 0.00 0.00 0.00 57 1008.8
20180621195029 94 267 5.0 12.0 0.00 0.00 0.00 55 1008.8
20180621194529 94 270 3.0 11.0 0.00 0.00 0.00 56 1009.0
20180621194028 93 258 3.0 11.0 0.00 0.00 0.00 55 1009.0
20180621193529 93 268 3.0 13.0 0.00 0.00 0.00 57 1009.1
20180621193029 94 281 3.0 14.0 0.00 0.00 0.00 55 1009.0
20180621192528 94 275 3.0 14.0 0.00 0.00 0.00 54 1009.2
20180621192029 94 262 3.0 11.0 0.00 0.00 0.00 57 1009.3
20180621191528 93 265 3.0 11.0 0.00 0.00 0.00 56 1009.3
20180621191029 93 271 3.0 9.0 0.00 0.00 0.00 56 1009.3
20180621190529 94 270 4.0 14.0 0.00 0.00 0.00 55 1009.4
20180621190029 94 273 3.0 14.0 0.00 0.00 0.00 56 1009.5
20180621185529 94 278 1.0 8.0 0.00 0.00 0.00 53 1009.6
20180621185028 94 280 1.0 6.0 0.00 0.00 0.00 55 1009.8
20180621184529 94 274 1.0 6.0 0.00 0.00 0.00 56 1009.8
20180621184028 94 265 2.0 7.0 0.00 0.00 0.00 55 1010.0
20180621183529 93 270 3.0 12.0 0.00 0.00 0.00 57 1010.0
20180621183028 93 263 3.0 12.0 0.00 0.00 0.00 54 1010.1
20180621182529 93 252 2.0 10.0 0.00 0.00 0.00 57 1010.2
20180621182028 93 255 1.0 8.0 0.00 0.00 0.00 56 1010.3
20180621181528 93 264 0.0 9.0 0.00 0.00 0.00 56 1010.4
20180621181029 93 268 0.0 9.0 0.00 0.00 0.00 59 1010.4
20180621180528 93 258 1.0 7.0 0.00 0.00 0.00 56 1010.5
20180621180028 93 261 0.0 7.0 0.00 0.00 0.00 57 1010.5
20180621175529 92 284 2.0 11.0 0.00 0.00 0.00 59 1010.6
20180621175028 93 282 3.0 11.0 0.00 0.00 0.00 58 1010.7
20180621174529 93 263 1.0 10.0 0.00 0.00 0.00 58 1010.8
20180621174028 94 239 0.0 10.0 0.00 0.00 0.00 55 1010.8
20180621173528 94 292 2.0 11.0 0.00 0.00 0.00 59 1010.9
20180621173028 93 288 3.0 11.0 0.00 0.00 0.00 58 1010.9
20180621172528 92 276 2.0 8.0 0.00 0.00 0.00 60 1010.9
20180621172028 92 266 1.0 8.0 0.00 0.00 0.00 61 1011.0
20180621171528 92 256 2.0 11.0 0.00 0.00 0.00 59 1011.0
20180621171029 92 258 2.0 11.0 0.00 0.00 0.00 59 1011.1
20180621170528 93 270 1.0 7.0 0.00 0.00 0.00 59 1011.1
20180621170028 93 276 0.0 5.0 0.00 0.00 0.00 60 1011.1
20180621165528 93 300 0.0 5.0 0.00 0.00 0.00 59 1011.2
20180621165028 93 330 1.0 6.0 0.00 0.00 0.00 59 1011.2
20180621164528 92 305 2.0 9.0 0.00 0.00 0.00 61 1011.2
20180621164028 92 284 2.0 9.0 0.00 0.00 0.00 60 1011.3
20180621163528 92 283 2.0 8.0 0.00 0.00 0.00 60 1011.3
20180621163028 92 287 2.0 8.0 0.00 0.00 0.00 60 1011.3
20180621162528 93 305 2.0 7.0 0.00 0.00 0.00 59 1011.3
20180621162027 93 313 1.0 7.0 0.00 0.00 0.00 59 1011.3
20180621161528 93 336 1.0 7.0 0.00 0.00 0.00 63 1011.2
20180621161028 92 321 2.0 7.0 0.00 0.00 0.00 61 1011.3
20180621160528 92 303 3.0 11.0 0.00 0.00 0.00 61 1011.3
20180621160028 92 297 3.0 11.0 0.00 0.00 0.00 63 1011.4
20180621155527 91 285 4.0 11.0 0.00 0.00 0.00 62 1011.4
20180621155028 90 271 4.0 11.0 0.00 0.00 0.00 63 1011.3
20180621154527 90 271 3.0 10.0 0.00 0.00 0.00 63 1011.3
20180621154028 90 292 2.0 8.0 0.00 0.00 0.00 64 1011.3
20180621153528 90 283 3.0 6.0 0.00 0.00 0.00 66 1011.3
20180621153027 90 281 4.0 8.0 0.00 0.00 0.00 65 1011.4
20180621152528 90 287 3.0 8.0 0.00 0.00 0.00 64 1011.4
20180621152028 91 290 2.0 8.0 0.00 0.00 0.00 63 1011.4
20180621151528 91 319 1.0 6.0 0.00 0.00 0.00 64 1011.4
20180621151027 90 317 2.0 5.0 0.00 0.00 0.00 65 1011.3
20180621150528 90 330 2.0 8.0 0.00 0.00 0.00 67 1011.4
20180621150028 89 320 3.0 8.0 0.00 0.00 0.00 67 1011.3
20180621145528 89 292 3.0 7.0 0.00 0.00 0.00 66 1011.3
20180621145028 89 287 2.0 8.0 0.00 0.00 0.00 67 1011.3
20180621144527 89 291 3.0 9.0 0.00 0.00 0.00 66 1011.3
20180621144028 89 300 2.0 9.0 0.00 0.00 0.00 67 1011.3
20180621143528 88 324 2.0 7.0 0.00 0.00 0.00 67 1011.3
20180621143027 88 317 3.0 7.0 0.00 0.00 0.00 67 1011.4
20180621142528 88 310 2.0 7.0 0.00 0.00 0.00 68 1011.4
20180621142028 88 323 3.0 8.0 0.00 0.00 0.00 69 1011.4
20180621141527 87 322 3.0 8.0 0.00 0.00 0.00 69 1011.4
20180621141028 87 324 3.0 7.0 0.00 0.00 0.00 69 1011.4
20180621140527 87 330 2.0 6.0 0.00 0.00 0.00 69 1011.4
20180621140028 87 302 2.0 6.0 0.00 0.00 0.00 71 1011.5
20180621135527 86 290 4.0 11.0 0.00 0.00 0.00 72 1011.5
20180621135028 86 294 3.0 11.0 0.00 0.00 0.00 71 1011.5
20180621134527 86 316 2.0 11.0 0.00 0.00 0.00 72 1011.5
20180621134028 86 322 2.0 6.0 0.00 0.00 0.00 73 1011.5
20180621133527 85 297 2.0 5.0 0.00 0.00 0.00 74 1011.5
20180621133028 85 288 2.0 8.0 0.00 0.00 0.00 75 1011.5
20180621132527 85 297 2.0 8.0 0.00 0.00 0.00 75 1011.5
20180621132028 84 289 3.0 6.0 0.00 0.00 0.00 76 1011.5
20180621131527 84 290 3.0 7.0 0.00 0.00 0.00 76 1011.6
20180621131028 84 308 2.0 7.0 0.00 0.00 0.00 76 1011.6
20180621130527 84 303 1.0 6.0 0.00 0.00 0.00 78 1011.7
20180621130027 83 302 1.0 6.0 0.00 0.00 0.00 78 1011.7
20180621125528 83 300 2.0 5.0 0.00 0.00 0.00 79 1011.6
20180621125027 83 279 2.0 7.0 0.00 0.00 0.00 80 1011.5
20180621124527 82 283 2.0 7.0 0.00 0.00 0.00 80 1011.5
20180621124027 82 297 2.0 8.0 0.00 0.00 0.00 80 1011.5
20180621123527 82 296 2.0 8.0 0.00 0.00 0.00 81 1011.4
20180621123027 82 294 3.0 8.0 0.00 0.00 0.00 82 1011.4
20180621122528 81 295 3.0 8.0 0.00 0.00 0.00 82 1011.4
20180621122027 81 290 2.0 8.0 0.00 0.00 0.00 82 1011.4
20180621121527 81 291 2.0 7.0 0.00 0.00 0.00 83 1011.4
20180621121027 81 291 3.0 7.0 0.00 0.00 0.00 84 1011.3
20180621120527 81 297 2.0 7.0 0.00 0.00 0.00 84 1011.2
20180621120027 81 293 2.0 7.0 0.00 0.00 0.00 84 1011.1
20180621115527 80 287 2.0 6.0 0.00 0.00 0.00 85 1011.1
20180621115028 80 278 2.0 6.0 0.00 0.00 0.00 85 1011.1
20180621114527 80 278 3.0 8.0 0.00 0.00 0.00 86 1011.0
20180621114027 80 284 2.0 8.0 0.00 0.00 0.00 86 1011.0
20180621113527 80 281 2.0 8.0 0.00 0.00 0.00 86 1011.0
20180621113027 80 275 1.0 7.0 0.00 0.00 0.00 86 1011.0
20180621112527 80 274 0.0 5.0 0.00 0.00 0.00 86 1010.9
20180621112027 80 0 0.0 0.0 0.00 0.00 0.00 86 1010.8
20180621111527 79 0 0.0 0.0 0.00 0.00 0.00 86 1010.8
20180621111027 79 0 0.0 0.0 0.00 0.00 0.00 87 1010.9
20180621110527 79 0 0.0 0.0 0.00 0.00 0.00 87 1010.8
20180621110026 79 0 0.0 0.0 0.00 0.00 0.00 87 1010.7
20180621105527 79 0 0.0 0.0 0.00 0.00 0.00 87 1010.7
20180621105027 79 0 0.0 0.0 0.00 0.00 0.00 87 1010.6
20180621104527 79 0 0.0 0.0 0.00 0.00 0.00 86 1010.7
20180621104027 79 0 0.0 0.0 0.00 0.00 0.00 86 1010.7
20180621103527 79 0 0.0 0.0 0.00 0.00 0.00 86 1010.7
20180621103027 79 0 0.0 0.0 0.00 0.00 0.00 86 1010.7
20180621102527 79 0 0.0 0.0 0.00 0.00 0.00 86 1010.7
20180621102027 79 0 0.0 0.0 0.00 0.00 0.00 86 1010.7
20180621101527 79 0 0.0 0.0 0.00 0.00 0.00 86 1010.6
20180621101027 79 289 0.0 1.0 0.00 0.00 0.00 86 1010.6
20180621100527 79 279 1.0 7.0 0.00 0.00 0.00 86 1010.5
20180621100027 79 279 0.0 7.0 0.00 0.00 0.00 86 1010.5
20180621095527 79 283 0.0 3.0 0.00 0.00 0.00 86 1010.4
20180621095027 79 285 0.0 4.0 0.00 0.00 0.00 86 1010.3
20180621094527 79 281 1.0 4.0 0.00 0.00 0.00 86 1010.2
20180621094027 79 272 1.0 4.0 0.00 0.00 0.00 86 1010.2
20180621093527 79 279 1.0 6.0 0.00 0.00 0.00 86 1010.1
20180621093027 79 286 0.0 6.0 0.00 0.00 0.00 86 1010.1
20180621092526 79 288 0.0 5.0 0.00 0.00 0.00 86 1010.1
20180621092027 79 254 0.0 4.0 0.00 0.00 0.00 86 1010.1
20180621091526 79 254 0.0 4.0 0.00 0.00 0.00 86 1010.1
20180621091027 79 265 0.0 2.0 0.00 0.00 0.00 86 1010.0
20180621090527 79 263 0.0 3.0 0.00 0.00 0.00 86 1010.0
20180621090026 79 263 0.0 3.0 0.00 0.00 0.00 86 1010.0
20180621085527 79 265 0.0 2.0 0.00 0.00 0.00 86 1010.1
20180621085026 79 265 0.0 2.0 0.00 0.00 0.00 86 1010.2
20180621084526 79 265 0.0 2.0 0.00 0.00 0.00 86 1010.0
20180621084027 79 273 0.0 1.0 0.00 0.00 0.00 86 1010.1
20180621083526 79 273 0.0 1.0 0.00 0.00 0.00 86 1010.2
20180621083026 79 0 0.0 0.0 0.00 0.00 0.00 86 1010.1
20180621082526 79 0 0.0 0.0 0.00 0.00 0.00 86 1010.2
20180621082026 79 0 0.0 0.0 0.00 0.00 0.00 86 1010.2
20180621081526 79 0 0.0 0.0 0.00 0.00 0.00 86 1010.2
20180621081027 79 0 0.0 0.0 0.00 0.00 0.00 86 1010.2
20180621080526 79 0 0.0 0.0 0.00 0.00 0.00 86 1010.1
20180621080027 79 250 0.0 1.0 0.00 0.00 0.00 86 1010.2
20180621075526 79 250 0.0 1.0 0.00 0.00 0.00 86 1010.2
20180621075026 79 265 0.0 3.0 0.00 0.00 0.00 86 1010.1
20180621074526 79 265 0.0 3.0 0.00 0.00 0.00 86 1010.1
20180621074026 80 253 0.0 5.0 0.00 0.00 0.00 86 1010.1
20180621073526 80 253 0.0 5.0 0.00 0.00 0.00 86 1010.2
20180621073026 80 0 0.0 0.0 0.00 0.00 0.00 86 1010.2
20180621072526 80 0 0.0 0.0 0.00 0.00 0.00 86 1010.2
20180621072026 80 0 0.0 0.0 0.00 0.00 0.00 86 1010.3
20180621071527 80 0 0.0 0.0 0.00 0.00 0.00 86 1010.4
20180621071026 80 0 0.0 0.0 0.00 0.00 0.00 85 1010.3
20180621070527 80 0 0.0 0.0 0.00 0.00 0.00 85 1010.3
20180621070026 80 0 0.0 0.0 0.00 0.00 0.00 85 1010.5
20180621065526 80 0 0.0 0.0 0.00 0.00 0.00 85 1010.4
20180621065027 80 0 0.0 0.0 0.00 0.00 0.00 85 1010.4
20180621064526 80 0 0.0 0.0 0.00 0.00 0.00 85 1010.4
20180621064026 80 0 0.0 0.0 0.00 0.00 0.00 85 1010.5
20180621063526 80 0 0.0 0.0 0.00 0.00 0.00 85 1010.4
20180621063026 80 0 0.0 0.0 0.00 0.00 0.00 86 1010.5
20180621062526 80 0 0.0 0.0 0.00 0.00 0.00 86 1010.6
20180621062026 80 0 0.0 0.0 0.00 0.00 0.00 86 1010.6
20180621061526 80 0 0.0 0.0 0.00 0.00 0.00 86 1010.6
20180621061026 80 0 0.0 0.0 0.00 0.00 0.00 86 1010.5
20180621060526 80 0 0.0 0.0 0.00 0.00 0.00 86 1010.5
20180621060026 80 0 0.0 0.0 0.00 0.00 0.00 86 1010.5
20180621055526 80 0 0.0 0.0 0.00 0.00 0.00 86 1010.4
20180621055026 80 0 0.0 0.0 0.00 0.00 0.00 86 1010.5
20180621054526 80 0 0.0 0.0 0.00 0.00 0.00 86 1010.4
20180621054025 80 0 0.0 0.0 0.00 0.00 0.00 85 1010.5
20180621053526 80 0 0.0 0.0 0.00 0.00 0.00 85 1010.6
20180621053026 80 0 0.0 0.0 0.00 0.00 0.00 85 1010.4
20180621052526 80 0 0.0 0.0 0.00 0.00 0.00 84 1010.4
20180621052026 81 0 0.0 0.0 0.00 0.00 0.00 84 1010.4
20180621051526 81 0 0.0 0.0 0.00 0.00 0.00 84 1010.3
20180621051026 81 0 0.0 0.0 0.00 0.00 0.00 84 1010.3
20180621050527 81 0 0.0 0.0 0.00 0.00 0.00 84 1010.4
20180621050026 81 0 0.0 0.0 0.00 0.00 0.00 83 1010.4
20180621045525 81 0 0.0 0.0 0.00 0.00 0.00 83 1010.4
20180621045026 81 0 0.0 0.0 0.00 0.00 0.00 83 1010.5
20180621044525 81 0 0.0 0.0 0.00 0.00 0.00 83 1010.5
20180621044026 82 0 0.0 0.0 0.00 0.00 0.00 82 1010.5
20180621043526 82 0 0.0 0.0 0.00 0.00 0.00 82 1010.5
20180621043025 82 0 0.0 0.0 0.00 0.00 0.00 82 1010.4
20180621042526 82 0 0.0 0.0 0.00 0.00 0.00 82 1010.5
20180621042026 82 0 0.0 0.0 0.00 0.00 0.00 82 1010.5
20180621041526 82 0 0.0 0.0 0.00 0.00 0.00 82 1010.6
20180621041026 82 0 0.0 0.0 0.00 0.00 0.00 82 1010.6
20180621040526 82 0 0.0 0.0 0.00 0.00 0.00 82 1010.7
20180621040026 82 0 0.0 0.0 0.00 0.00 0.00 82 1010.7
20180621035526 82 0 0.0 0.0 0.00 0.00 0.00 82 1010.8
20180621035026 82 0 0.0 0.0 0.00 0.00 0.00 81 1010.8
20180621034525 82 0 0.0 0.0 0.00 0.00 0.00 81 1010.8
20180621034026 82 0 0.0 0.0 0.00 0.00 0.00 81 1010.9
20180621033525 82 0 0.0 0.0 0.00 0.00 0.00 82 1010.9
20180621033025 82 0 0.0 0.0 0.00 0.00 0.00 81 1010.9
20180621032526 82 190 0.0 1.0 0.00 0.00 0.00 81 1011.0
20180621032025 82 184 0.0 2.0 0.00 0.00 0.00 81 1010.9
20180621031525 82 173 0.0 2.0 0.00 0.00 0.00 81 1011.1
20180621031026 82 168 0.0 2.0 0.00 0.00 0.00 80 1010.9
20180621030525 82 0 0.0 0.0 0.00 0.00 0.00 80 1011.0
20180621030025 82 162 0.0 2.0 0.00 0.00 0.00 80 1010.9
20180621025525 82 175 0.0 4.0 0.00 0.00 0.00 79 1010.8
20180621025025 82 179 0.0 4.0 0.00 0.00 0.00 79 1010.9
20180621024526 82 174 0.0 2.0 0.00 0.00 0.00 79 1010.9
20180621024025 82 183 0.0 6.0 0.00 0.00 0.00 78 1010.9
20180621023525 83 184 0.0 6.0 0.00 0.00 0.00 78 1010.9
20180621023026 83 150 1.0 6.0 0.00 0.00 0.00 77 1010.9
20180621022525 83 145 3.0 7.0 0.00 0.00 0.00 77 1010.9
20180621022025 83 141 3.0 7.0 0.00 0.00 0.00 76 1010.9
20180621021525 83 130 3.0 8.0 0.00 0.00 0.00 76 1010.8
20180621021025 84 120 4.0 9.0 0.00 0.00 0.00 75 1010.9
20180621020526 84 106 6.0 13.0 0.00 0.00 0.00 75 1010.9
20180621020025 84 104 4.0 13.0 0.00 0.00 0.00 73 1010.9
20180621015525 85 149 0.0 1.0 0.00 0.00 0.00 73 1010.7
20180621015025 85 72 0.0 1.0 0.00 0.00 0.00 74 1010.7
20180621014525 86 72 0.0 1.0 0.00 0.00 0.00 74 1010.5
20180621014025 86 0 0.0 0.0 0.00 0.00 0.00 73 1010.5
20180621013525 86 0 0.0 0.0 0.00 0.00 0.00 73 1010.5
20180621013025 86 0 0.0 0.0 0.00 0.00 0.00 72 1010.4
20180621012525 87 0 0.0 0.0 0.00 0.00 0.00 71 1010.3
20180621012025 87 0 0.0 0.0 0.00 0.00 0.00 70 1010.2
20180621011525 87 0 0.0 0.0 0.00 0.00 0.00 70 1010.1
20180621011024 87 0 0.0 0.0 0.00 0.00 0.00 69 1010.0
20180621010525 88 0 0.0 0.0 0.00 0.00 0.00 67 1009.9
20180621010025 88 0 0.0 0.0 0.00 0.00 0.00 66 1009.9
20180621005524 88 0 0.0 0.0 0.00 0.00 0.00 65 1009.8
20180621005025 89 0 0.0 0.0 0.00 0.00 0.00 64 1009.9
20180621004525 89 0 0.0 0.0 0.00 0.00 0.00 63 1009.9
20180621004024 90 0 0.0 0.0 0.00 0.00 0.00 63 1009.8
20180621003525 90 0 0.0 0.0 0.00 0.00 0.00 61 1009.7
20180621003025 90 0 0.0 0.0 0.00 0.00 0.00 61 1009.9
20180621002524 91 0 0.0 0.0 0.00 0.00 0.00 60 1009.7
20180621002025 91 0 0.0 0.0 0.00 0.00 0.00 58 1009.7
20180621001525 92 0 0.0 0.0 0.00 0.00 0.00 58 1009.6
20180621001025 91 257 0.0 1.0 0.00 0.00 0.00 58 1009.4
20180621000525 91 257 0.0 1.0 0.00 0.00 0.00 58 1009.4
20180621000024 91 0 0.0 0.0 0.00 0.00 0.00 58 1009.3
20180620235525 91 0 0.0 0.0 0.00 0.00 0.00 58 1009.2
20180620235025 91 0 0.0 0.0 0.00 0.00 0.00 57 1009.3
20180620234524 91 0 0.0 0.0 0.00 0.00 0.00 57 1009.3